Location: ????????
(37.9452°N, 23.1472°E)
Time: 03:39:22
(UTC+00:00)

Terra - Pass Details

Date: 18 April 2024
Orbit: 691 x 696 km, 98.0° (Epoch: 20 May)

Event Time Altitude Azimuth Distance (km) Brightness Sun altitude
Exits shadow 19:01:24 26° 61° (ENE) 1,366 3.0 -21.4°
Drops below altitude 10° 19:04:57 10° 13° (NNE) 2,162 4.6 -21.9°
Sets 19:07:29 0° 1° (N) 3,083 5.6 -22.3°
